sat.trackr.live / text

‹ back to catalog

STARLINK-36438

NORAD 67625 · 2026-020J

PAYLOAD ACTIVE UNKNOWN

§ Identity

Operator
Country
US
Launch date
2026-01-30
Launch site
AFETR
Launch vehicle
Mass (kg)
RCS (m²)

Purposes: comms

External: N2YO · Heavens-Above · Gunter

§ Orbital elements

Epoch: 2026-05-25T01:33:20.074752Z

Period
94.26 min
Inclination
43.0008°
Eccentricity
0.0000649
Mean motion
15.27615924 rev/d
Perigee alt
482.5 km
Apogee alt
483.4 km
Semi-major
6,861.1 km
B*
1.3433e-3
RAAN
68.5046°
Arg perigee
233.0147°
Mean anomaly
127.0645°
Rev number
1,779

§ Raw data

STARLINK-364381 67625U 26020J   26145.06481568  .00036929  00000+0  13433-2 0  99962 67625  43.0008  68.5046 0000649 233.0147 127.0645 15.27615924 17792

JSON: /api/v1/satellites/67625 · /tle

For live sub-satellite position, see the globe view (requires WebGL).

§ Visibility from observer

Set your observer location to see the next 7 days of passes ≥ 10°. The values pass through the URL so the page stays shareable.

No JS? Fill the form by hand. The geolocation button needs JavaScript.